Time,TemperatureF,DewpointF,PressureIn,WindDirection,WindDirectionDegrees,WindSpeedMPH,WindSpeedGustMPH,Humidity,HourlyPrecipIn,Conditions,Clouds,dailyrainin,SolarRadiationWatts/m^2,SoftwareType,DateUTC
2013-10-06 00:12:00,72.6,72.0,30.00,NE,48,0.0,0.0,97,0.00,,,0.00,0,weatherlink.com 1.10,2013-10-06 04:12:00,
2013-10-06 00:27:00,72.3,71.0,30.00,NE,48,0.0,0.0,97,0.00,,,0.00,0,weatherlink.com 1.10,2013-10-06 04:27:00,
2013-10-06 00:42:00,71.9,71.0,30.00,NE,48,0.0,0.0,97,0.00,,,0.00,0,weatherlink.com 1.10,2013-10-06 04:42:00,
2013-10-06 00:57:00,71.6,71.0,29.99,NE,48,0.0,0.0,97,0.00,,,0.00,0,weatherlink.com 1.10,2013-10-06 04:57:00,
2013-10-06 01:12:00,71.5,71.0,29.99,NE,48,0.0,0.0,97,0.00,,,0.00,0,weatherlink.com 1.10,2013-10-06 05:12:00,
2013-10-06 01:27:00,71.1,70.0,29.98,NE,48,0.0,0.0,97,0.00,,,0.00,0,weatherlink.com 1.10,2013-10-06 05:27:00,
2013-10-06 01:44:00,71.1,70.0,29.98,NE,48,0.0,0.0,97,0.00,,,0.00,0,weatherlink.com 1.10,2013-10-06 05:44:00,
2013-10-06 01:57:00,71.0,70.0,29.98,NE,48,0.0,0.0,97,0.00,,,0.00,0,weatherlink.com 1.10,2013-10-06 05:57:00,
2013-10-06 02:12:00,71.0,70.0,29.98,NE,48,0.0,0.0,97,0.00,,,0.00,0,weatherlink.com 1.10,2013-10-06 06:12:00,
2013-10-06 02:28:00,71.1,71.0,29.97,NE,48,0.0,1.0,98,0.00,,,0.00,0,weatherlink.com 1.10,2013-10-06 06:28:00,
2013-10-06 02:44:00,71.0,70.0,29.97,NE,48,0.0,1.0,98,0.00,,,0.00,0,weatherlink.com 1.10,2013-10-06 06:44:00,
2013-10-06 02:58:00,71.1,71.0,29.96,NE,39,0.0,1.0,98,0.00,,,0.00,0,weatherlink.com 1.10,2013-10-06 06:58:00,
2013-10-06 03:14:00,71.3,71.0,29.96,NE,39,0.0,0.0,98,0.00,,,0.00,0,weatherlink.com 1.10,2013-10-06 07:14:00,
2013-10-06 03:28:00,71.3,71.0,29.96,NE,39,0.0,0.0,98,0.00,,,0.00,0,weatherlink.com 1.10,2013-10-06 07:28:00,
2013-10-06 03:44:00,71.2,71.0,29.95,NE,39,0.0,0.0,98,0.00,,,0.00,0,weatherlink.com 1.10,2013-10-06 07:44:00,
2013-10-06 03:58:00,71.1,71.0,29.95,NE,39,0.0,0.0,98,0.00,,,0.00,0,weatherlink.com 1.10,2013-10-06 07:58:00,
2013-10-06 04:14:00,71.0,70.0,29.94,NE,39,0.0,1.0,98,0.00,,,0.00,0,weatherlink.com 1.10,2013-10-06 08:14:00,
2013-10-06 04:28:00,70.9,70.0,29.94,NE,39,0.0,1.0,98,0.00,,,0.00,0,weatherlink.com 1.10,2013-10-06 08:28:00,
2013-10-06 04:44:00,70.8,70.0,29.94,NE,39,0.0,0.0,98,0.00,,,0.00,0,weatherlink.com 1.10,2013-10-06 08:44:00,
2013-10-06 04:58:00,70.8,70.0,29.94,NE,40,0.0,1.0,98,0.00,,,0.00,0,weatherlink.com 1.10,2013-10-06 08:58:00,
2013-10-06 05:14:00,70.9,70.0,29.94,NE,50,0.0,2.0,98,0.00,,,0.00,0,weatherlink.com 1.10,2013-10-06 09:14:00,
2013-10-06 05:29:00,70.8,70.0,29.94,NE,50,0.0,1.0,98,0.00,,,0.00,0,weatherlink.com 1.10,2013-10-06 09:29:00,
2013-10-06 05:44:00,70.9,70.0,29.94,NE,50,0.0,0.0,98,0.00,,,0.00,0,weatherlink.com 1.10,2013-10-06 09:44:00,
2013-10-06 05:59:00,70.7,70.0,29.94,NE,50,0.0,0.0,98,0.00,,,0.00,0,weatherlink.com 1.10,2013-10-06 09:59:00,
2013-10-06 06:14:00,70.5,70.0,29.95,NE,50,0.0,1.0,99,0.00,,,0.00,0,weatherlink.com 1.10,2013-10-06 10:14:00,
2013-10-06 06:29:00,70.7,70.0,29.95,NE,50,0.0,1.0,99,0.00,,,0.00,0,weatherlink.com 1.10,2013-10-06 10:29:00,
2013-10-06 06:44:00,70.6,70.0,29.95,NE,50,0.0,1.0,99,0.00,,,0.00,0,weatherlink.com 1.10,2013-10-06 10:44:00,
2013-10-06 06:59:00,70.4,70.0,29.95,NE,50,0.0,0.0,98,0.00,,,0.00,0,weatherlink.com 1.10,2013-10-06 10:59:00,
2013-10-06 07:14:00,70.4,70.0,29.95,NE,50,0.0,0.0,98,0.00,,,0.00,0,weatherlink.com 1.10,2013-10-06 11:14:00,
2013-10-06 07:29:00,70.3,70.0,29.95,NE,50,0.0,0.0,98,0.00,,,0.00,5,weatherlink.com 1.10,2013-10-06 11:29:00,
2013-10-06 07:44:00,70.3,70.0,29.96,NE,50,0.0,0.0,99,0.00,,,0.00,16,weatherlink.com 1.10,2013-10-06 11:44:00,
2013-10-06 07:59:00,70.3,70.0,29.96,NE,50,0.0,0.0,99,0.00,,,0.00,25,weatherlink.com 1.10,2013-10-06 11:59:00,
2013-10-06 08:14:00,70.8,71.0,29.96,NE,50,0.0,1.0,99,0.00,,,0.00,72,weatherlink.com 1.10,2013-10-06 12:14:00,
2013-10-06 08:29:00,71.5,71.0,29.96,NNE,29,1.0,3.0,99,0.00,,,0.00,35,weatherlink.com 1.10,2013-10-06 12:29:00,
2013-10-06 08:44:00,72.4,72.0,29.96,East,87,1.0,3.0,99,0.00,,,0.00,192,weatherlink.com 1.10,2013-10-06 12:44:00,
2013-10-06 08:59:00,73.4,73.0,29.96,East,88,0.0,5.0,99,0.00,,,0.00,93,weatherlink.com 1.10,2013-10-06 12:59:00,
2013-10-06 09:14:00,74.3,74.0,29.97,East,90,0.0,3.0,99,0.00,,,0.00,88,weatherlink.com 1.10,2013-10-06 13:14:00,
2013-10-06 09:30:00,75.3,75.0,29.97,East,88,3.0,5.0,99,0.00,,,0.00,322,weatherlink.com 1.10,2013-10-06 13:30:00,
2013-10-06 09:45:00,77.1,76.0,29.97,ENE,61,1.0,5.0,96,0.00,,,0.00,399,weatherlink.com 1.10,2013-10-06 13:45:00,
2013-10-06 10:00:00,78.8,76.0,29.97,ESE,107,3.0,5.0,91,0.00,,,0.00,510,weatherlink.com 1.10,2013-10-06 14:00:00,
2013-10-06 10:15:00,80.9,75.0,29.97,SSE,148,1.0,6.0,83,0.00,,,0.00,174,weatherlink.com 1.10,2013-10-06 14:15:00,
2013-10-06 10:30:00,82.2,76.0,29.97,SE,124,2.0,6.0,82,0.00,,,0.00,708,weatherlink.com 1.10,2013-10-06 14:30:00,
2013-10-06 10:45:00,82.2,76.0,29.97,SE,138,3.0,7.0,80,0.00,,,0.00,227,weatherlink.com 1.10,2013-10-06 14:45:00,
2013-10-06 11:00:00,82.5,75.0,29.97,ENE,76,1.0,4.0,78,0.00,,,0.00,455,weatherlink.com 1.10,2013-10-06 15:00:00,
2013-10-06 11:15:00,82.6,74.0,29.97,South,171,3.0,7.0,76,0.00,,,0.00,178,weatherlink.com 1.10,2013-10-06 15:15:00,
2013-10-06 11:30:00,84.6,75.0,29.96,ESE,110,3.0,7.0,72,0.00,,,0.00,172,weatherlink.com 1.10,2013-10-06 15:30:00,
2013-10-06 11:46:00,85.2,74.0,29.96,South,169,2.0,8.0,70,0.00,,,0.00,912,weatherlink.com 1.10,2013-10-06 15:46:00,
2013-10-06 12:00:00,85.5,75.0,29.96,South,187,6.0,6.0,71,0.00,,,0.00,937,weatherlink.com 1.10,2013-10-06 16:00:00,
2013-10-06 12:16:00,85.0,75.0,29.95,South,180,1.0,6.0,71,0.00,,,0.00,267,weatherlink.com 1.10,2013-10-06 16:16:00,
2013-10-06 12:31:00,85.5,74.0,29.94,East,95,3.0,9.0,68,0.00,,,0.00,295,weatherlink.com 1.10,2013-10-06 16:31:00,
2013-10-06 12:46:00,86.7,74.0,29.94,WNW,297,1.0,4.0,66,0.00,,,0.00,914,weatherlink.com 1.10,2013-10-06 16:46:00,
2013-10-06 13:01:00,87.0,73.0,29.93,SSE,158,1.0,5.0,64,0.00,,,0.00,258,weatherlink.com 1.10,2013-10-06 17:01:00,
2013-10-06 13:16:00,87.1,73.0,29.92,SW,234,4.0,7.0,64,0.00,,,0.00,162,weatherlink.com 1.10,2013-10-06 17:16:00,
2013-10-06 13:31:00,87.7,73.0,29.92,SE,144,2.0,6.0,62,0.00,,,0.00,216,weatherlink.com 1.10,2013-10-06 17:31:00,
2013-10-06 13:46:00,87.2,73.0,29.91,SSW,196,4.0,5.0,62,0.00,,,0.00,919,weatherlink.com 1.10,2013-10-06 17:46:00,
2013-10-06 14:01:00,87.4,73.0,29.90,SW,234,4.0,5.0,63,0.00,,,0.00,958,weatherlink.com 1.10,2013-10-06 18:01:00,
2013-10-06 14:16:00,88.6,73.0,29.90,South,171,5.0,7.0,60,0.00,,,0.00,494,weatherlink.com 1.10,2013-10-06 18:16:00,
2013-10-06 14:31:00,87.8,72.0,29.89,WSW,250,0.0,7.0,60,0.00,,,0.00,172,weatherlink.com 1.10,2013-10-06 18:31:00,
2013-10-06 14:47:00,87.1,73.0,29.89,East,96,0.0,3.0,63,0.00,,,0.00,425,weatherlink.com 1.10,2013-10-06 18:47:00,
2013-10-06 15:02:00,88.5,72.0,29.88,SW,220,3.0,7.0,59,0.00,,,0.00,744,weatherlink.com 1.10,2013-10-06 19:02:00,
2013-10-06 15:17:00,88.2,72.0,29.87,West,265,2.0,7.0,59,0.00,,,0.00,281,weatherlink.com 1.10,2013-10-06 19:17:00,
2013-10-06 15:32:00,87.1,72.0,29.87,SW,234,2.0,8.0,62,0.00,,,0.00,237,weatherlink.com 1.10,2013-10-06 19:32:00,
2013-10-06 15:47:00,87.2,73.0,29.87,SSW,202,2.0,3.0,62,0.00,,,0.00,272,weatherlink.com 1.10,2013-10-06 19:47:00,
2013-10-06 16:02:00,87.6,74.0,29.87,ESE,109,4.0,8.0,65,0.00,,,0.00,640,weatherlink.com 1.10,2013-10-06 20:02:00,
2013-10-06 16:17:00,86.7,74.0,29.86,ESE,104,1.0,3.0,65,0.00,,,0.00,450,weatherlink.com 1.10,2013-10-06 20:17:00,
2013-10-06 16:32:00,87.4,73.0,29.86,SE,136,0.0,3.0,63,0.00,,,0.00,144,weatherlink.com 1.10,2013-10-06 20:32:00,
2013-10-06 16:47:00,86.3,74.0,29.86,ESE,111,0.0,1.0,67,0.00,,,0.00,134,weatherlink.com 1.10,2013-10-06 20:47:00,
2013-10-06 17:02:00,85.6,74.0,29.85,ESE,111,1.0,1.0,68,0.00,,,0.00,67,weatherlink.com 1.10,2013-10-06 21:02:00,
2013-10-06 17:17:00,85.6,75.0,29.85,SE,138,0.0,1.0,70,0.00,,,0.00,213,weatherlink.com 1.10,2013-10-06 21:17:00,
2013-10-06 17:32:00,86.2,75.0,29.85,SE,136,0.0,0.0,69,0.00,,,0.00,355,weatherlink.com 1.10,2013-10-06 21:32:00,
2013-10-06 17:48:00,87.4,73.0,29.84,SSE,150,1.0,3.0,63,0.00,,,0.00,246,weatherlink.com 1.10,2013-10-06 21:48:00,
2013-10-06 18:02:00,87.5,73.0,29.85,East,94,0.0,6.0,62,0.00,,,0.00,190,weatherlink.com 1.10,2013-10-06 22:02:00,
2013-10-06 18:17:00,86.7,74.0,29.85,ESE,106,3.0,7.0,67,0.00,,,0.00,116,weatherlink.com 1.10,2013-10-06 22:17:00,
2013-10-06 18:34:00,85.0,75.0,29.86,ENE,71,0.0,4.0,73,0.00,,,0.00,42,weatherlink.com 1.10,2013-10-06 22:34:00,
2013-10-06 18:48:00,83.7,75.0,29.86,ESE,123,2.0,5.0,76,0.00,,,0.00,14,weatherlink.com 1.10,2013-10-06 22:48:00,
2013-10-06 19:04:00,82.2,75.0,29.86,ENE,71,0.0,7.0,79,0.00,,,0.00,0,weatherlink.com 1.10,2013-10-06 23:04:00,
2013-10-06 19:18:00,81.1,74.0,29.86,East,94,1.0,7.0,80,0.00,,,0.00,0,weatherlink.com 1.10,2013-10-06 23:18:00,
2013-10-06 19:34:00,80.1,74.0,29.87,ESE,114,0.0,6.0,82,0.00,,,0.00,0,weatherlink.com 1.10,2013-10-06 23:34:00,
2013-10-06 19:48:00,79.4,74.0,29.87,South,172,0.0,2.0,82,0.00,,,0.00,0,weatherlink.com 1.10,2013-10-06 23:48:00,
2013-10-06 20:04:00,78.5,72.0,29.87,ESE,105,0.0,2.0,80,0.00,,,0.00,0,weatherlink.com 1.10,2013-10-07 00:04:00,
2013-10-06 20:18:00,77.9,72.0,29.88,SE,130,0.0,3.0,81,0.00,,,0.00,0,weatherlink.com 1.10,2013-10-07 00:18:00,
2013-10-06 20:34:00,77.2,71.0,29.88,SE,143,0.0,2.0,82,0.00,,,0.00,0,weatherlink.com 1.10,2013-10-07 00:34:00,
2013-10-06 20:48:00,76.6,71.0,29.88,East,98,0.0,4.0,82,0.00,,,0.00,0,weatherlink.com 1.10,2013-10-07 00:48:00,
2013-10-06 21:04:00,76.5,71.0,29.88,SE,144,0.0,5.0,83,0.00,,,0.00,0,weatherlink.com 1.10,2013-10-07 01:04:00,
2013-10-06 21:18:00,76.2,71.0,29.90,SSW,213,4.0,7.0,84,0.00,,,0.00,0,weatherlink.com 1.10,2013-10-07 01:18:00,
2013-10-06 21:34:00,76.2,71.0,29.90,SSW,207,0.0,2.0,84,0.00,,,0.00,0,weatherlink.com 1.10,2013-10-07 01:34:00,
2013-10-06 21:48:00,76.1,71.0,29.90,SSW,203,0.0,1.0,85,0.00,,,0.00,0,weatherlink.com 1.10,2013-10-07 01:48:00,
2013-10-06 22:04:00,75.7,71.0,29.89,SSW,197,0.0,2.0,86,0.00,,,0.00,0,weatherlink.com 1.10,2013-10-07 02:04:00,
2013-10-06 22:18:00,75.6,72.0,29.89,South,171,0.0,4.0,87,0.00,,,0.00,0,weatherlink.com 1.10,2013-10-07 02:18:00,
2013-10-06 22:34:00,75.5,71.0,29.89,SW,215,0.0,2.0,87,0.00,,,0.00,0,weatherlink.com 1.10,2013-10-07 02:34:00,
2013-10-06 22:48:00,75.1,71.0,29.89,SW,215,0.0,1.0,87,0.00,,,0.00,0,weatherlink.com 1.10,2013-10-07 02:48:00,
2013-10-06 23:04:00,74.5,71.0,29.88,SW,215,0.0,1.0,89,0.00,,,0.00,0,weatherlink.com 1.10,2013-10-07 03:04:00,
2013-10-06 23:18:00,74.2,71.0,29.88,SW,215,0.0,1.0,89,0.00,,,0.00,0,weatherlink.com 1.10,2013-10-07 03:18:00,
2013-10-06 23:34:00,73.8,71.0,29.88,SW,215,0.0,0.0,90,0.00,,,0.00,0,weatherlink.com 1.10,2013-10-07 03:34:00,
2013-10-06 23:49:00,73.0,70.0,29.87,SW,215,0.0,0.0,91,0.00,,,0.00,0,weatherlink.com 1.10,2013-10-07 03:49:00,